Location: Unspecified
(48.5670°N, 0.0000°E)
Time: 17:29:10
(UTC+00:00)

deb Explorer IX - Visible Passes

Search period start: 17 July 2019 00:00
Search period end: 27 July 2019 00:00
Orbit: 539 x 1112 km, 38.8° (Epoch: 17 July)

Date Brightness Start Highest point End Pass type
(mag) Time Alt. Az. Time Alt. Az. Time Alt. Az.
19 Jul ? 03:33:32 10° SSW 03:36:00 16° SSE 03:38:29 10° SE visible
20 Jul ? 03:11:50 11° SSW 03:14:10 16° SSE 03:16:40 10° SE visible
21 Jul ? 02:50:55 14° S 02:52:19 16° SSE 02:54:52 10° SE visible
22 Jul ? 02:30:00 16° S 02:30:29 17° SSE 02:33:07 10° SE visible
23 Jul ? 02:09:07 17° SSE 02:09:07 17° SSE 02:11:21 10° SE visible
24 Jul ? 01:48:16 15° SE 01:48:16 15° SE 01:49:37 10° SE visible
24 Jul ? 03:29:38 10° SW 03:32:48 21° S 03:35:52 10° SE visible
25 Jul ? 01:27:28 12° SE 01:27:28 12° SE 01:27:53 10° ESE visible
25 Jul ? 03:08:50 15° SW 03:10:57 21° S 03:14:03 10° SE visible
26 Jul ? 02:48:08 20° SSW 02:49:06 22° S 02:52:16 10° SE visible
